Weather History for Spirit of St Louis, MO

Change the Weather History Date:

Saturday, June 7, 2014

  Actual Average Record
Temperature  
Mean Temperature 68 °F -  
Max Temperature 78 °F 79 °F 95 °F (2011)
Min Temperature 62 °F 59 °F 48 °F (1998)
Cooling Degree Days 4    
Growing Degree Days 18 (Base 50)    
Moisture  
Dew Point 65 °F    
Average Humidity 87    
Maximum Humidity 100    
Minimum Humidity 73    
Precipitation  
Precipitation 0.80 in - - ()
Sea Level Pressure  
Sea Level Pressure 29.85 in    
Wind  
Wind Speed 5 mph (South)    
Max Wind Speed 21 mph    
Max Gust Speed 32 mph    
Visibility 5 miles    
Events Rain , Thunderstorm    
Averages and records for this station are not official NWS values.
T = Trace of Precipitation, MM = Missing Value Source: NWS Daily Summary

Daily Weather History Graph

Daily Weather History Graph

Search for Another Location

Airport:

Trip Planner

Search our weather history database for the weather conditions in past years. The results will help you decide how hot, cold, wet, or windy it might be!

Date:

Astronomy

Jun. 07, 2014 Rise Set
Actual Time 5:38 AM CDT 8:25 PM CDT
Civil Twilight 5:06 AM CDT 8:56 PM CDT
Nautical Twilight 4:26 AM CDT 9:36 PM CDT
Astronomical Twilight 3:41 AM CDT 10:21 PM CDT
Moon 2:46 PM CDT (6/7) 1:56 AM CDT (6/7)
Length of Visible Light 15h 50m
Length of Day
14h 47m
Waxing Gibbous, 68% of the Moon is Illuminated
Jun 7
Waxing Gibbous
Jun 12
Full
Jun 19
Last Quarter
Jun 27
New
Jul 5
First Quarter

Hourly Weather History & Observations

Time (CDT) Temp. Dew Point Humidity Pressure Visibility Wind Dir Wind Speed Gust Speed Precip Events Conditions
12:54 AM 64.9 °F 62.1 °F 90% 29.91 in 5.0 mi Calm Calm - N/A   Clear
1:54 AM 64.9 °F 63.0 °F 93% 29.93 in 4.0 mi Calm Calm - N/A   Clear
2:54 AM 64.0 °F 62.1 °F 93% 29.92 in 2.5 mi Calm Calm - N/A   Clear
3:13 AM 64.4 °F 62.6 °F 94% 29.94 in 3.0 mi Calm Calm - N/A   Clear
3:26 AM 64.4 °F 62.6 °F 94% 29.94 in 2.5 mi Calm Calm - N/A   Clear
3:54 AM 63.0 °F 62.1 °F 97% 29.93 in 1.5 mi Calm Calm - N/A   Clear
4:20 AM 62.6 °F 62.6 °F 100% 29.96 in 2.0 mi Calm Calm - N/A   Clear
4:40 AM 62.6 °F 62.6 °F 100% 29.96 in 1.8 mi Calm Calm - N/A   Clear
4:52 AM 62.6 °F 62.6 °F 100% 29.95 in 2.0 mi Calm Calm - N/A   Clear
4:54 AM 63.0 °F 62.1 °F 97% 29.93 in 2.0 mi Calm Calm - N/A   Clear
5:38 AM 62.6 °F 60.8 °F 94% 29.92 in 1.8 mi Calm Calm - N/A   Clear
5:54 AM 64.0 °F 62.1 °F 93% 29.90 in 1.8 mi Calm Calm - N/A   Clear
6:01 AM 64.4 °F 62.6 °F 94% 29.92 in 2.5 mi ENE 3.5 mph - N/A   Clear
6:30 AM 66.2 °F 62.6 °F 88% 29.92 in 3.0 mi East 4.6 mph - N/A   Mostly Cloudy
6:54 AM 66.2 °F 64.4 °F 94% 29.92 in 2.0 mi East 5.8 mph - N/A   Overcast
7:54 AM 69.8 °F 64.4 °F 83% 29.94 in 2.0 mi East 5.8 mph - N/A   Haze
8:54 AM 72.0 °F 66.0 °F 81% 29.87 in 3.0 mi East 10.4 mph - N/A   Haze
9:54 AM 73.9 °F 66.0 °F 76% 29.86 in 3.0 mi ESE 8.1 mph - N/A   Haze
10:54 AM 75.0 °F 66.9 °F 76% 29.86 in 4.0 mi ESE 9.2 mph - N/A   Haze
11:22 AM 73.4 °F 68.0 °F 83% 29.89 in 8.0 mi South 8.1 mph - N/A Rain , Thunderstorm Light Rain
11:29 AM 73.4 °F 68.0 °F 83% 29.88 in 2.0 mi South 16.1 mph 27.6 mph 0.08 in Rain , Thunderstorm Heavy Thunderstorms and Rain
11:36 AM 69.8 °F 64.4 °F 83% 29.88 in 1.8 mi SSW 10.4 mph 24.2 mph 0.13 in Rain , Thunderstorm Thunderstorms and Rain
11:54 AM 70.0 °F 66.0 °F 87% 29.83 in 4.0 mi SE 5.8 mph 16.1 mph 0.16 in Rain , Thunderstorm Rain
12:26 PM 68.0 °F 64.4 °F 88% 29.86 in 0.8 mi Variable 3.5 mph - 0.16 in Rain , Thunderstorm Heavy Thunderstorms and Rain
12:41 PM 66.2 °F 64.4 °F 94% 29.85 in 1.2 mi East 4.6 mph - 0.30 in Rain , Thunderstorm Heavy Rain
12:47 PM 68.0 °F 64.4 °F 88% 29.86 in 3.0 mi Calm Calm - 0.31 in Rain , Thunderstorm Rain
12:54 PM 68.0 °F 64.9 °F 90% 29.84 in 5.0 mi Variable 3.5 mph - 0.32 in Rain Light Rain
1:54 PM 73.9 °F 69.1 °F 85% 29.78 in 10.0 mi Variable 5.8 mph - 0.03 in   Mostly Cloudy
2:54 PM 75.9 °F 68.0 °F 76% 29.74 in 10.0 mi SSE 11.5 mph 20.7 mph N/A   Mostly Cloudy
3:47 PM 73.4 °F 69.8 °F 88% 29.73 in 1.8 mi SSW 20.7 mph 25.3 mph 0.08 in Rain Heavy Rain
3:54 PM 73.9 °F 69.1 °F 85% 29.73 in 7.0 mi WSW 12.7 mph 26.5 mph 0.08 in Rain Light Rain
4:43 PM 75.2 °F 69.8 °F 83% 29.73 in 1.8 mi SSW 10.4 mph 18.4 mph 0.08 in Rain Heavy Rain
4:54 PM 75.0 °F 71.1 °F 87% 29.72 in 7.0 mi SW 9.2 mph 18.4 mph 0.21 in Rain Light Rain
5:54 PM 75.9 °F 68.0 °F 76% 29.70 in 10.0 mi SW 12.7 mph - 0.00 in   Mostly Cloudy
6:54 PM 75.0 °F 66.0 °F 73% 29.70 in 10.0 mi West 15.0 mph 23.0 mph N/A   Mostly Cloudy
7:54 PM 73.9 °F 64.9 °F 73% 29.72 in 10.0 mi West 12.7 mph 21.9 mph N/A   Scattered Clouds
8:54 PM 73.0 °F 66.0 °F 79% 29.74 in 10.0 mi WNW 16.1 mph 25.3 mph N/A   Overcast
9:18 PM 73.4 °F 64.4 °F 73% 29.76 in 10.0 mi West 19.6 mph 28.8 mph N/A   Overcast
9:54 PM 70.0 °F 64.0 °F 81% 29.77 in 10.0 mi WNW 19.6 mph 26.5 mph N/A   Overcast
10:54 PM 69.1 °F 63.0 °F 81% 29.79 in 10.0 mi WNW 15.0 mph - N/A   Overcast
11:54 PM 68.0 °F 60.1 °F 76% 29.82 in 10.0 mi NNW 19.6 mph 32.2 mph N/A   Overcast